GW4755 Weather Reports


Display with metric or nautical units.
time (UTC)temp
F
wind
direction
speed
MPH
gust
MPH
rain 1hr
in
rain 24hr
in
rain mn
in
humidity
%
barometer
mb
20260506164504 56 354 0.0 0.0 0.00 0.00 0.00 89 1007.5
20260506163005 56 2 0.0 0.0 0.00 0.00 0.00 91 1007.5
20260506161504 55 2 0.0 0.0 0.00 0.00 0.00 91 1007.5
20260506160005 55 340 0.0 0.0 0.00 0.00 0.00 91 1007.5
20260506154503 54 339 0.0 0.0 0.00 0.00 0.00 91 1007.5
20260506151503 53 339 0.0 0.0 0.00 0.00 0.00 92 1007.5
20260506150004 53 339 0.0 0.0 0.00 0.00 0.00 92 1007.1
20260506144504 52 339 0.0 0.0 0.00 0.00 0.00 92 1007.5
20260506143003 52 0 0.0 0.0 0.00 0.00 0.00 92 1007.1
20260506141503 52 1 0.0 0.0 0.00 0.00 0.00 92 1007.1
20260506140005 52 0 0.0 0.0 0.00 0.00 0.00 92 1007.1
20260506134503 52 0 0.0 0.0 0.00 0.00 0.00 92 1007.1
20260506133004 52 0 0.0 0.0 0.00 0.00 0.00 92 1006.8
20260506131505 52 6 0.0 0.0 0.00 0.00 0.00 92 1006.8
20260506130005 52 8 0.0 0.0 0.00 0.00 0.00 92 1006.4
20260506124503 51 358 0.0 0.0 0.00 0.00 0.00 92 1006.4
20260506121503 52 358 0.0 0.0 0.00 0.00 0.00 92 1006.4
20260506120005 52 358 0.0 0.0 0.00 0.00 0.00 92 1006.4
20260506112503 52 358 0.0 0.0 0.00 0.00 0.00 92 1006.1
20260506111005 52 358 0.0 0.0 0.00 0.00 0.00 92 1006.1
20260506105503 51 358 0.0 0.0 0.00 0.00 0.00 92 1005.8
20260506103504 51 8 0.0 0.0 0.00 0.00 0.00 92 1005.8
20260506101503 51 344 0.0 0.0 0.00 0.00 0.00 91 1005.8
20260506091503 51 3 0.0 0.0 0.00 0.00 0.00 92 1005.8
20260506090004 51 325 0.0 0.0 0.00 0.00 0.00 92 1005.8
20260506083003 51 348 0.0 0.0 0.00 0.00 0.00 92 1005.8
20260506081503 51 19 0.0 0.0 0.00 0.00 0.00 91 1005.4
20260506073003 50 358 0.0 0.0 0.00 0.00 0.00 91 1005.4
20260506071504 50 4 0.0 0.0 0.00 0.00 0.00 91 1005.1
20260506061503 51 358 0.0 0.0 0.00 0.00 0.00 91 1005.1
20260506044504 52 355 0.0 0.0 0.00 0.00 0.00 88 1004.1
20260506043004 52 358 0.0 0.0 0.00 0.00 0.00 88 1004.1
20260506041504 52 2 0.0 0.0 0.00 0.00 0.00 88 1003.7
20260506034503 53 342 0.0 0.0 0.00 0.00 0.00 86 1003.4
20260506033004 54 314 0.0 0.0 0.00 0.00 0.00 86 1003.0
20260506031504 54 324 0.0 0.0 0.00 0.00 0.00 86 1002.7
20260506030004 55 344 0.0 0.0 0.00 0.00 0.00 85 1002.7
20260506025002 55 298 0.0 0.0 0.00 0.00 0.00 85 1002.4
20260506023504 55 326 0.0 0.0 0.00 0.00 0.00 84 1002.4
20260506022003 56 349 0.0 0.0 0.00 0.00 0.00 84 1002.4
20260506020503 56 2 0.0 0.0 0.00 0.00 0.00 83 1002.0
20260506015003 56 8 0.0 0.0 0.00 0.00 0.00 81 1002.0
20260506013503 57 14 0.0 0.0 0.00 0.00 0.00 81 1002.0
20260506005004 58 20 0.0 0.0 0.00 0.00 0.00 82 1002.0
20260506003503 58 17 0.0 0.0 0.00 0.00 0.00 81 1002.0
20260506002004 58 54 2.0 2.0 0.00 0.00 0.00 80 1002.0
20260505235503 58 52 2.0 2.0 0.00 0.00 0.10 80 1002.0
20260505234503 58 14 0.0 2.0 0.00 0.00 0.10 79 1002.0
20260505233003 58 65 2.0 2.0 0.00 0.00 0.10 77 1002.0
20260505230004 59 17 3.0 3.0 0.00 0.00 0.10 79 1002.0
20260505224502 60 36 2.0 2.0 0.00 0.00 0.10 79 1002.0
20260505223004 60 356 0.0 4.0 0.00 0.00 0.10 79 1002.0
20260505221503 61 23 2.0 3.0 0.00 0.00 0.10 77 1002.0
20260505220004 61 102 0.0 4.0 0.00 0.00 0.10 79 1002.0
20260505214503 60 12 0.0 0.0 0.00 0.00 0.10 81 1002.0
20260505211503 60 62 2.0 2.0 0.00 0.00 0.10 79 1002.4
20260505210004 60 40 0.0 4.0 0.00 0.00 0.10 78 1002.4
20260505205003 60 52 3.0 3.0 0.00 0.00 0.10 80 1002.4
20260505203503 60 34 0.0 0.0 0.00 0.00 0.10 79 1002.4
20260505195004 58 349 0.0 0.0 0.00 0.00 0.10 82 1002.7
20260505193503 59 84 0.0 0.0 0.00 0.00 0.10 81 1002.7
20260505192004 57 66 2.0 3.0 0.00 0.00 0.10 82 1002.7
20260505185004 56 306 0.0 0.0 0.00 0.00 0.10 88 1002.7
20260505183503 56 356 0.0 0.0 0.00 0.00 0.10 88 1002.7
20260505182004 56 25 0.0 0.0 0.00 0.00 0.10 88 1002.7
20260505180503 56 358 0.0 0.0 0.00 0.00 0.10 88 1002.4
20260505175004 55 355 0.0 0.0 0.00 0.00 0.10 92 1002.4
20260505173505 55 354 0.0 0.0 0.00 0.00 0.10 93 1002.4
20260505172003 54 338 0.0 0.0 0.00 0.00 0.10 93 1002.0
20260505170504 54 334 0.0 0.0 0.00 0.00 0.10 94 1002.4